Weather History for Rome Fiumicino, Italy

Change the Weather History Date:

Sunday, November 25, 2012

  Actual Average Record
Temperature  
Mean Temperature 54 °F -  
Max Temperature 64 °F 58 °F 71 °F (2002)
Min Temperature 44 °F 42 °F 32 °F (1996)
Degree Days  
Heating Degree Days 11    
Growing Degree Days 4 (Base 50)    
Moisture  
Dew Point 48 °F    
Average Humidity 85    
Maximum Humidity 94    
Minimum Humidity 64    
Precipitation  
Precipitation 0.00 in 0.12 in - ()
Sea Level Pressure  
Sea Level Pressure 30.20 in    
Wind  
Wind Speed 3 mph ()    
Max Wind Speed 7 mph    
Max Gust Speed -    
Visibility 3.7 miles    
Events Fog    
Averages and records for this station are not official NWS values.
T = Trace of Precipitation, MM = Missing Value Source: Averaged Metar Reports

Daily Weather History Graph

Daily Weather History Graph

Search for Another Location

Airport:

Trip Planner

Search our weather history database for the weather conditions in past years. The results will help you decide how hot, cold, wet, or windy it might be!

Date:

Astronomy

Nov. 25, 2012 Rise Set
Actual Time 7:12 AM CET 4:43 PM CET
Civil Twilight 6:41 AM CET 5:14 PM CET
Nautical Twilight 6:07 AM CET 5:48 PM CET
Astronomical Twilight 5:34 AM CET 6:21 PM CET
Moon 2:52 PM CET (11/25) 4:08 AM CET (11/25)
Length of Visible Light 10h 32m
Length of Day
9h 30m
Waxing Gibbous, 91% of the Moon is Illuminated
Nov 25
Waxing Gibbous
Nov 28
Full
Dec 6
Last Quarter
Dec 13
New
Dec 20
First Quarter

Hourly Weather History & Observations

Time (CET) Temp. Windchill Dew Point Humidity Pressure Visibility Wind Dir Wind Speed Gust Speed Precip Events Conditions
12:20 AM 50.0 °F - 48.2 °F 94% 30.24 in 3.7 mi East 3.5 mph - N/A   Unknown
12:50 AM 48.2 °F - 46.4 °F 93% 30.24 in 3.7 mi NE 3.5 mph - N/A   Unknown
1:20 AM 48.2 °F - 46.4 °F 93% 30.21 in 3.7 mi Variable 1.2 mph - N/A   Unknown
1:50 AM 48.2 °F - 46.4 °F 93% 30.24 in 3.7 mi NE 2.3 mph - N/A   Unknown
2:20 AM 48.2 °F - 46.4 °F 93% 30.24 in 3.7 mi NE 3.5 mph - N/A Fog Fog
2:50 AM 46.4 °F 45.2 °F 44.6 °F 93% 30.24 in 3.7 mi Variable 3.5 mph - N/A Fog Fog
3:20 AM 48.2 °F - 46.4 °F 93% 30.21 in 3.7 mi NE 2.3 mph - N/A Fog Fog
3:50 AM 46.4 °F 45.2 °F 44.6 °F 93% 30.21 in 3.1 mi ENE 3.5 mph - N/A   Mist
4:50 AM 44.6 °F 42.2 °F 42.8 °F 93% 30.21 in - East 4.6 mph - N/A   Mist
5:20 AM 44.6 °F 43.1 °F 42.8 °F 93% 30.21 in 2.2 mi NE 3.5 mph - N/A   Mist
5:50 AM 46.4 °F 45.2 °F 44.6 °F 93% 30.21 in - ENE 3.5 mph - N/A   Mist
6:20 AM 44.6 °F 40.7 °F 42.8 °F 93% 30.21 in 4.3 mi NE 6.9 mph - N/A   Unknown
6:50 AM 44.6 °F 41.4 °F 42.8 °F 93% 30.24 in 3.1 mi ENE 5.8 mph - N/A   Mist
7:20 AM 44.6 °F 42.2 °F 42.8 °F 93% 30.24 in 3.7 mi East 4.6 mph - N/A   Unknown
7:50 AM 44.6 °F 43.1 °F 42.8 °F 93% 30.24 in 4.3 mi East 3.5 mph - N/A   Unknown
8:20 AM 46.4 °F 44.3 °F 44.6 °F 93% 30.24 in 4.3 mi East 4.6 mph - N/A   Unknown
8:50 AM 48.2 °F - 46.4 °F 93% 30.24 in - East 5.8 mph - N/A   Clear
9:50 AM 53.6 °F - 48.2 °F 82% 30.24 in - ENE 6.9 mph - N/A   Clear
10:20 AM 55.4 °F - 48.2 °F 77% 30.24 in - ENE 6.9 mph - N/A   Clear
10:50 AM 57.2 °F - 48.2 °F 72% 30.24 in - ENE 5.8 mph - N/A   Clear
11:20 AM 57.2 °F - 48.2 °F 72% 30.24 in - ENE 4.6 mph - N/A   Clear
11:50 AM 59.0 °F - 50.0 °F 72% 30.21 in - East 5.8 mph - N/A   Clear
12:20 PM 60.8 °F - 50.0 °F 68% 30.21 in - ENE 4.6 mph - N/A   Clear
12:50 PM 62.6 °F - 51.8 °F 68% 30.21 in - ENE 4.6 mph - N/A   Clear
1:20 PM 62.6 °F - 51.8 °F 68% 30.18 in - Variable 2.3 mph - N/A   Clear
1:50 PM 64.4 °F - 51.8 °F 64% 30.18 in - Variable 1.2 mph - N/A   Clear
2:20 PM 64.4 °F - 51.8 °F 64% 30.18 in - Variable 2.3 mph - N/A   Clear
2:50 PM 64.4 °F - 51.8 °F 64% 30.18 in - Variable 2.3 mph - N/A   Clear
3:20 PM 64.4 °F - 53.6 °F 68% 30.18 in - Variable 1.2 mph - N/A   Clear
3:50 PM 62.6 °F - 53.6 °F 72% 30.18 in - West 2.3 mph - N/A   Clear
4:20 PM 62.6 °F - 53.6 °F 72% 30.18 in - NW 2.3 mph - N/A   Clear
4:50 PM 57.2 °F - 51.8 °F 82% 30.18 in - WSW 5.8 mph - N/A   Clear
5:20 PM 57.2 °F - 51.8 °F 82% 30.18 in - WSW 4.6 mph - N/A   Clear
5:50 PM 55.4 °F - 51.8 °F 88% 30.18 in - Variable 2.3 mph - N/A   Clear
6:20 PM 53.6 °F - 50.0 °F 88% 30.18 in 5.6 mi NNE 2.3 mph - N/A   Unknown
6:50 PM 51.8 °F - 50.0 °F 94% 30.18 in 5.6 mi Variable 2.3 mph - N/A   Unknown
7:20 PM 51.8 °F - 50.0 °F 94% 30.18 in 5.6 mi NNE 2.3 mph - N/A   Unknown
7:50 PM 51.8 °F - 48.2 °F 88% 30.18 in 5.0 mi Variable 2.3 mph - N/A   Unknown
8:20 PM 50.0 °F - 48.2 °F 94% 30.18 in 4.3 mi ENE 5.8 mph - N/A   Unknown
8:50 PM 50.0 °F - 48.2 °F 94% 30.18 in 3.1 mi ENE 6.9 mph - N/A   Mist
9:20 PM 50.0 °F - 46.4 °F 87% 30.18 in 3.1 mi East 4.6 mph - N/A   Mist
9:50 PM 48.2 °F - 46.4 °F 93% 30.18 in 3.1 mi ENE 4.6 mph - N/A   Mist
10:20 PM 48.2 °F - 46.4 °F 93% 30.18 in 3.1 mi ENE 4.6 mph - N/A   Mist
10:50 PM 50.0 °F - 48.2 °F 94% 30.18 in 1.9 mi Variable 3.5 mph - N/A Fog Patches of Fog
11:20 PM 48.2 °F - 46.4 °F 93% 30.18 in 1.9 mi East 4.6 mph - N/A Fog Patches of Fog
11:50 PM 46.4 °F 45.2 °F 44.6 °F 93% 30.18 in 1.9 mi East 3.5 mph - N/A Fog Patches of Fog